WetterOnline ( http://www.wetteronline.de )

Wetter aktuell Frankfurt am Main

Aktuelles Wetter: Offenbach (119m)

6-stündlich | Neueste Meldungen
Ortszeit Temperatur Wetter
So, 19.08. 2:00 14.9° C wolkig
Sa, 18.08. 20:00 26.5° C leicht bewölkt
Sa, 18.08. 14:00 25.9° C wolkenlos
Sa, 18.08. 8:00 18.7° C wolkig
Sa, 18.08. 2:00 19.6° C wolkig
Fr, 17.08. 20:00 25.8° C leicht bewölkt
Fr, 17.08. 14:00 28.7° C wolkenlos
Fr, 17.08. 8:00 16.9° C leicht bewölkt
Ortszeit Temperatur Wetter
So, 19.08. 5:00 12.8° C wolkig
So, 19.08. 4:50 12.8° C wolkig
So, 19.08. 4:40 13.0° C leicht bewölkt
So, 19.08. 4:30 13.0° C fast wolkenlos
So, 19.08. 4:20 13.0° C fast wolkenlos
So, 19.08. 4:10 13.3° C fast wolkenlos
So, 19.08. 4:00 13.4° C wolkenlos
So, 19.08. 3:30 13.9° C leicht bewölkt
So, 19.08. 3:00 14.4° C wolkig
So, 19.08. 2:30 14.8° C wolkig
So, 19.08. 2:00 14.9° C wolkig
Ortszeit Relative Feuchte Sichtweite
So, 19.08. 2:00 68% 45 km
Sa, 18.08. 20:00 29% 55 km
Sa, 18.08. 14:00 37% 55 km
Sa, 18.08. 8:00 64% 35 km
Sa, 18.08. 2:00 70% 22 km
Fr, 17.08. 20:00 51% 35 km
Fr, 17.08. 14:00 40% 40 km
Fr, 17.08. 8:00 81% 30 km
Ortszeit Relative Feuchte Sichtweite
So, 19.08. 5:00 79% 45 km
So, 19.08. 4:50 79% -
So, 19.08. 4:40 78% -
So, 19.08. 4:30 77% 45 km
So, 19.08. 4:20 77% -
So, 19.08. 4:10 77% -
So, 19.08. 4:00 76% 45 km
So, 19.08. 3:30 74% 50 km
So, 19.08. 3:00 70% 50 km
So, 19.08. 2:30 68% 45 km
So, 19.08. 2:00 68% 45 km
Ortszeit Niederschlagsmenge Niederschlagsart
So, 19.08. 2:00 0.0 l/m2 in 6 Std. -
Sa, 18.08. 20:00 0.0 l/m2 in 12 Std. -
Sa, 18.08. 14:00 0.0 l/m2 in 6 Std. -
Sa, 18.08. 8:00 0.0 l/m2 in 12 Std. -
Sa, 18.08. 2:00 0.0 l/m2 in 6 Std. -
Fr, 17.08. 20:00 0.1 l/m2 in 12 Std. Regen
Fr, 17.08. 14:00 0.0 l/m2 in 6 Std. -
Fr, 17.08. 8:00 0.0 l/m2 in 12 Std. -
Ortszeit Niederschlagsmenge Niederschlagsart
So, 19.08. 5:00 0.0 l/m2 in 1 Std. -
So, 19.08. 4:50 keine Meldung -
So, 19.08. 4:40 keine Meldung -
So, 19.08. 4:30 0.0 l/m2 in 1 Std. -
So, 19.08. 4:20 keine Meldung -
So, 19.08. 4:10 keine Meldung -
So, 19.08. 4:00 0.0 l/m2 in 1 Std. -
So, 19.08. 3:30 0.0 l/m2 in 1 Std. -
So, 19.08. 3:00 0.0 l/m2 in 1 Std. -
So, 19.08. 2:30 0.0 l/m2 in 1 Std. -
So, 19.08. 2:00 0.0 l/m2 in 1 Std. -
Ortszeit Stärke Spitze Richtung
km/h Bft. km/h Grad Sektor
So, 19.08. 2:00 0 0 18 - -
Sa, 18.08. 20:00 7 2 29 360° N
Sa, 18.08. 14:00 7 2 25 40° NO
Sa, 18.08. 8:00 7 2 20 340° N
Sa, 18.08. 2:00 11 2 32 350° N
Fr, 17.08. 20:00 13 3 33 320° NW
Fr, 17.08. 14:00 9 2 31 50° NO
Fr, 17.08. 8:00 2 1 9 100° O
Ortszeit Stärke Spitze Richtung
km/h Bft. km/h Grad Sektor
So, 19.08. 5:00 4 1 4 160° S
So, 19.08. 4:50 4 1 - 160° S
So, 19.08. 4:40 4 1 - 160° S
So, 19.08. 4:30 4 1 4 160° S
So, 19.08. 4:20 4 1 - 160° S
So, 19.08. 4:10 0 0 - 140° SO
So, 19.08. 4:00 4 1 4 160° S
So, 19.08. 3:30 2 1 4 70° O
So, 19.08. 3:00 4 1 4 150° SO
So, 19.08. 2:30 4 1 4 140° SO
So, 19.08. 2:00 0 0 4 - -
Ortszeit Untergrenze Bedeckung Gattung
total tief tief mittel hoch
So, 19.08. 2:00 10500 m 8/8 0/8 - - -
Sa, 18.08. 20:00 12000 m 8/8 0/8 - - -
Sa, 18.08. 14:00 - 0/8 0/8 - - -
Sa, 18.08. 8:00 10500 m 8/8 0/8 - - -
Sa, 18.08. 2:00 3600 m 8/8 3/8 - - -
Fr, 17.08. 20:00 9000 m 8/8 0/8 - - -
Fr, 17.08. 14:00 - 0/8 0/8 - - -
Fr, 17.08. 8:00 9000 m 4/8 0/8 - - -
Ortszeit Bedeckungsgrad in Achtel und Wolkenuntergrenze
So, 19.08. 5:00 7(12000m)
So, 19.08. 4:50 7(12000m)
So, 19.08. 4:40 1(3000m) 6(12000m)
So, 19.08. 4:30 1(3300m) 4(12000m)
So, 19.08. 4:20 1(3300m)
So, 19.08. 4:10 1(3300m)
So, 19.08. 4:00 1(3300m)
So, 19.08. 3:30 6(9000m)
So, 19.08. 3:00 8(9000m) 8(12000m)
So, 19.08. 2:30 7(9000m) 8(10500m) 8(10500m)
So, 19.08. 2:00 8(10500m) 8(10500m) 8(12000m)
Ortszeit Luftdruck NN (hPa) Tendenz (hPa in 3 Std.)
So, 19.08. 2:00 1022 + 0,2
Sa, 18.08. 20:00 1020 - 0,1
Sa, 18.08. 14:00 1021 - 0,8
Sa, 18.08. 8:00 1022 + 1,0
Sa, 18.08. 2:00 1020 + 0,8
Fr, 17.08. 20:00 1016 + 1,3
Fr, 17.08. 14:00 1015 - 0,4
Fr, 17.08. 8:00 1014 + 0,9
Ortszeit Luftdruck NN (hPa) Tendenz (hPa in 3 Std.)
So, 19.08. 5:00 1022 + 0,3
So, 19.08. 4:50 1022 keine Meldung
So, 19.08. 4:40 1022 keine Meldung
So, 19.08. 4:30 1022 0,0
So, 19.08. 4:20 1022 keine Meldung
So, 19.08. 4:10 1022 keine Meldung
So, 19.08. 4:00 1022 - 0,1
So, 19.08. 3:30 1022 - 0,2
So, 19.08. 3:00 1022 - 0,2
So, 19.08. 2:30 1022 - 0,1
So, 19.08. 2:00 1022 + 0,2
Ortszeit Schneehöhe (cm)
So, 19.08. 2:00 -
Sa, 18.08. 20:00 -
Sa, 18.08. 14:00 -
Sa, 18.08. 8:00 -
Sa, 18.08. 2:00 -
Fr, 17.08. 20:00 -
Fr, 17.08. 14:00 -
Fr, 17.08. 8:00 -
Ortszeit Schneehöhe (cm)
So, 19.08. 5:00 -
So, 19.08. 4:50 -
So, 19.08. 4:40 -
So, 19.08. 4:30 -
So, 19.08. 4:20 -
So, 19.08. 4:10 -
So, 19.08. 4:00 -
So, 19.08. 3:30 -
So, 19.08. 3:00 -
So, 19.08. 2:30 -
So, 19.08. 2:00 -
Link zu dieser Seite / Seite empfehlen

Das Wetter in ...